Torna al catalogo

STARLINK-5250

AttivoComunicazioniVLEO
NORAD 54200·PAYLOAD·🇺🇸 United States

Lanciato Oct 28, 2022 da Vandenberg Space Force Base

Loading…

Prossimi Passaggi (prossime 24 ore)

TLE

AggiornatoSource: CelesTrak SupGP

Epoca: Sep 14, 2026, 14:04 UTC

1 54200C 22141AV  26257.58659722 -.00024999  00000+0 -71510-3 0  2575
2 54200  53.1577 215.6822 0001263  97.4494 307.9862 15.35416925    13

Traccia STARLINK-5250 in tempo reale con AllMySat

Download on the App Store